Regional Weather Roundup
Issued by NWS

Home | Current Version | Previous Version | Graphics & Text | Print | Product List | Glossary On
Versions: 1 2 3 4 5 6 7 8 9 10 11 12 13 14 15 16 17 18 19 20 21 22 23 24 25 26 27 28 29 30 31 32 33 34 35 36 37 38 39 40 41 42 43 44 45 46 47 48 49 50
474
ASUS43 KFSD 071610
RWRSD

WEATHER ROUNDUP FOR SOUTH DAKOTA
NATIONAL WEATHER SERVICE SIOUX FALLS SD
1000 AM CST SUN FEB 07 2016

NOTE: "FAIR" INDICATES FEW OR NO CLOUDS BELOW 12,000 FEET WITH NO
SIGNIFICANT WEATHER AND/OR OBSTRUCTIONS TO VISIBILITY.


SDZ001>005-009-010-012>017-071700-
NORTHWEST AND NORTH CENTRAL SOUTH DAKOTA

CITY           SKY/WX    TMP DP  RH WIND       PRES   REMARKS
BUFFALO          N/A     35  13  40 NW52G64   29.99R WCI  18
FAITH            N/A     33  16  49 NW41G59   29.99R WCI  17
MOBRIDGE       LGT SNOW  33  29  85 NW25G36   29.84R FOG     WCI  20
$$

SDZ012>016-024>037-041>051-057-063-072>074-071700-
SOUTHWEST AND SOUTH CENTRAL SOUTH DAKOTA

CITY           SKY/WX    TMP DP  RH WIND       PRES   REMARKS
RAPID CTY ARPT SUNNY     36  10  34 NW45G60   30.11S
PIERRE         CLOUDY    37  22  54 NW43G56   29.93R
CUSTER         SUNNY     25   4  40 NW28G43   30.11R WCI   9
ELLSWORTH AFB  SUNNY     35  12  37 NW48G64   30.08  WCI  19
PHILIP         SUNNY     38  17  42 NW38G53   30.03S
PINE RIDGE     SUNNY     36  12  37 NW15G23   30.17S
SPEARFISH      HVY SNOW  30  12  47 NW36G51   30.17R WCI  14
WINNER         FAIR      38  18  44 W26G39    29.99S
$$

SDZ004>011-016>023-039-040-071700-
NORTHEAST SOUTH DAKOTA

CITY           SKY/WX    TMP DP  RH WIND       PRES   REMARKS
ABERDEEN       LGT SNOW  34  29  82 W23G29    29.79R WCI  22
WATERTOWN      CLOUDY    35  24  64 W18       29.73S WCI  24
BROOKINGS      MOSUNNY   36  25  64 W29G37    29.76F
SISSETON         N/A     37  27  67 NW24G32   29.68S
$$

SDZ017-020-022-023-036>040-048>070-071700-
SOUTHEAST SOUTH DAKOTA

CITY           SKY/WX    TMP DP  RH WIND       PRES   REMARKS
SIOUX FALLS    MOSUNNY   37  27  67 W21G31    29.83F
HURON          CLOUDY    36  25  64 NW35G47   29.84F
CHAMBERLAIN    CLOUDY    36  22  56 W29G41    29.95S
MITCHELL       PTSUNNY   37  27  67 W21G31    29.89F
YANKTON        MOSUNNY   39  25  56 W24G31    29.93S
$$

ABBREVIATIONS USED IN REMARKS
   TC - TEMPERATURE IN CELSIUS
  WCI - WIND CHILL INDEX
   HX - HEAT INDEX
  VSB - VISIBILITY





USA.gov is the U.S. government's official web portal to all federal, state and local government web resources and services.